Location: Ferintosh
(52.7647°N, 112.9692°W)
Time: 19:43:35
(UTC+00:00)

Explorer 7 - Pass Details

Date: 26 May 2024
Orbit: 466 x 622 km, 50.3° (Epoch: 16 June)

Event Time Altitude Azimuth Distance (km) Brightness Sun altitude
Rises 07:30:06 0° 261° (W) 2,551 10.1 -16.0°
Reaches altitude 10° 07:32:14 10° 258° (WSW) 1,691 9.2 -16.0°
Maximum altitude 07:36:01 61° 178° (S) 584 6.6 -16.0°
Drops below altitude 10° 07:39:59 10° 98° (E) 1,779 9.4 -16.0°
Sets 07:42:17 0° 95° (E) 2,700 10.3 -15.9°
